sat.trackr.live / text

‹ back to catalog

SXM-7

NORAD 47240 · 2020-096A

PAYLOAD ACTIVE UNKNOWN

§ Identity

Operator
Country
US
Launch date
2020-12-13
Launch site
AFETR
Launch vehicle
Mass (kg)
RCS (m²)

Purposes: comms

External: N2YO · Heavens-Above · Gunter

§ Orbital elements

Epoch: 2026-05-25T02:59:06.160704Z

Period
1,436.09 min
Inclination
0.0410°
Eccentricity
0.0004099
Mean motion
1.00272274 rev/d
Perigee alt
35,769.2 km
Apogee alt
35,803.7 km
Semi-major
42,164.6 km
B*
0.0000e+0
RAAN
114.6172°
Arg perigee
11.2626°
Mean anomaly
76.4604°
Rev number
721

§ Raw data

SXM-71 47240U 20096A   26145.12437686 -.00000208  00000+0  00000+0 0  99982 47240   0.0410 114.6172 0004099  11.2626  76.4604  1.00272274  7218

JSON: /api/v1/satellites/47240 · /tle

For live sub-satellite position, see the globe view (requires WebGL).

§ Visibility from observer

Set your observer location to see the next 7 days of passes ≥ 10°. The values pass through the URL so the page stays shareable.

No JS? Fill the form by hand. The geolocation button needs JavaScript.